Lid_Strength_Index
12 11 11 10 8 8 7 7 8 8 7 8 8 8 10 11 11 10 10 10 9 8 9 9 9 9 10 10 9 7 8 9 10 8 8 8 8 8 8 8 9 11 11
13 12 11 10 9 9 8 8 7 7 7 7 8 9 10 12 12 12 12 12 11 11 11 11 12 12 12 12 12 12 10 10 11 11 9 10 9 9 8 10 10 12 12
13 13 12 11 10 9 9 9 8 7 8 9 10 11 12 12 13 14 14 13 13 12 12 13 13 13 13 13 14 14 13 14 12 12 11 12 13 12 9 12 12 13 13
13 13 13 12 11 11 9 8 8 9 9 10 11 12 13 14 14 14 14 14 14 13 13 13 13 13 13 14 14 13 14 13 14 13 12 13 13 15 16 13 13 12 11
13 13 13 12 12 12 11 10 11 11 10 10 11 13 14 14 15 15 15 15 15 14 14 14 14 14 14 14 14 14 14 14 14 14 14 14 14 15 16 17 16 14 13
14 14 13 13 13 13 13 12 12 12 12 12 13 14 15 15 15 15 16 16 16 15 15 14 15 15 15 14 14 14 14 14 14 14 14 14 15 15 15 16 16 16 14
14 14 15 15 14 14 14 13 13 14 13 13 13 14 14 15 15 15 16 16 16 16 16 15 16 16 15 15 14 15 15 15 15 14 14 13 13 13 13 14 15 16 14
14 15 15 15 15 14 14 15 15 15 14 14 14 14 14 15 15 15 15 16 16 16 16 16 15 15 15 15 15 15 15 15 15 14 14 13 13 12 13 13 15 16 15
14 14 14 15 15 15 15 15 15 15 15 15 15 15 15 15 15 15 15 16 16 15 15 15 16 15 15 15 15 15 15 14 14 14 13 13 13 12 13 12 13 14 17
14 14 14 14 15 15 15 15 15 15 15 15 15 15 15 15 15 15 16 16 16 16 16 16 16 16 16 16 15 15 14 14 14 13 14 14 13 13 13 13 13 13 15
14 14 14 15 15 15 15 16 16 16 16 15 15 16 16 16 15 16 16 16 16 16 16 16 16 16 16 16 15 15 14 14 14 14 14 13 13 14 13 13 13 13 14
13 13 14 14 15 15 15 16 16 16 16 16 16 16 16 16 16 16 16 16 16 16 16 16 16 16 16 15 15 15 14 14 14 13 13 13 12 14 13 13 13 13 13
13 13 14 15 15 15 15 16 16 16 16 16 16 17 17 16 16 16 16 16 16 16 16 16 16 16 15 15 15 14 14 13 13 13 13 13 13 13 13 13 13 13 12
13 13 14 14 15 15 15 16 16 16 16 16 17 17 17 16 16 16 16 16 16 17 17 16 16 15 15 15 14 14 13 13 13 12 12 12 12 12 13 12 13 12 13
13 13 13 14 15 15 15 15 15 16 15 16 17 16 16 16 16 16 16 16 16 16 16 16 16 15 15 14 14 13 13 13 13 12 12 11 11 9 10 11 12 12 13
13 13 13 14 14 15 15 15 15 16 15 16 16 16 16 16 16 16 16 16 16 16 16 16 16 16 14 12 12 12 13 12 12 12 11 11 11 11 9 9 9 9 12
12 13 13 13 13 14 14 15 15 15 16 16 16 17 16 16 16 16 16 16 17 16 16 16 16 15 15 12 11 11 12 12 12 11 11 11 11 11 11 10 9 9 9
13 12 12 12 13 13 14 14 15 16 16 16 16 17 16 16 17 17 17 17 16 16 16 16 15 15 15 11 11 11 12 12 11 11 11 11 11 11 10 11 11 11 10
11 11 12 12 12 13 13 14 15 16 16 16 16 16 16 17 16 17 17 17 16 16 16 16 16 16 16 11 10 10 12 12 11 10 10 10 10 9 7 9 11 10 9
13 13 13 14 13 14 14 14 15 15 16 16 15 15 16 16 16 16 17 16 17 15 15 15 16 16 18 11 10 10 12 16 12 11 9 8 8 7 6 8 9 12 11
14 15 14 14 15 15 15 16 16 15 16 16 16 16 16 15 15 16 17 16 17 16 17 17 18 18 16 15 10 9 11 12 13 12 11 9 7 6 6 6 8 10 8
15 15 16 16 16 16 16 17 16 16 17 17 17 17 17 15 15 15 18 17 17 19 20 21 20 17 15 13 11 9 8 9 11 12 10 10 7 6 5 6 7 6 8
16 16 17 17 16 17 16 16 16 17 17 18 18 19 18 17 17 17 18 19 19 18 19 17 17 16 14 14 9 9 8 7 9 9 9 7 6 7 9 9 8 9 14
17 18 17 18 18 18 17 18 17 17 18 18 18 18 18 19 19 18 17 18 18 18 17 17 16 18 15 14 14 13 13 10 9 9 10 10 8 8 10 13 11 12 13
17 17 17 17 17 18 18 19 18 17 18 18 18 19 19 19 19 19 19 17 18 16 19 19 18 17 17 15 12 13 15 14 11 11 14 17 17 17 16 17 15 14 15
18 18 18 18 18 18 19 19 18 17 17 18 18 18 18 19 19 19 20 12 12 11 9 9 13 18 11 10 8 8 7 6 5 12 22 21 19 17 17 18 17 16 15